Back to catalog

ONEWEB-0110

AliveCommunicationsPO
NORAD 47260·PAYLOAD·🇬🇧 United Kingdom

Launched Dec 18, 2020 from Vostochny Cosmodrome

Loading…

Next Passes (next 24 hours)

TLE

FreshSource: CelesTrak SupGP

Epoch: Sep 14, 2026, 18:27 UTC

1 47260C 20100C   26257.76924028 -.00000124  00000+0 -34542-3 0  2578
2 47260  87.8985 332.8626 0002056  93.2028   6.1591 13.12441890    19

Track ONEWEB-0110 in real time with AllMySat

Download on the App Store